Flag for Nigeria Weather past 2 weeks in Enugu, Nigeria

Now
73 °F

Partly cloudy.


Feels Like: 68 °F
Forecast: 73 / 83 °F
Wind: No wind

Location: Malabo/Fernando Poo

Current Time: Oct 1, 2014 at 1:41:38 AM

Latest Report: Oct 1, 2014 at 1:00 AM


Visibility: N/A

Pressure: 29.95 "Hg

Humidity: 100%

Dew point: 73 °F

Location of EnuguLocation

Historic Weather in Enugu — Graph

°F

Enugu temperature yesterday

Maximum temperature yesterday: 77 °F (at 2:00 PM)
Minimum temperature yesterday: 73 °F (at 12:00 AM)
Average temperature yesterday: 75 °F

Past Weeks' High & Low Weather Summary

 TemperatureHumidityPressure
High84 °F (Sep 16, 10:30 AM)100% (Sep 20, 12:00 AM)30.04 "Hg (Sep 20, 12:00 AM)
Low72 °F (Sep 22, 6:00 AM)70% (Sep 17, 12:00 PM)29.83 "Hg (Sep 17, 5:00 PM)
Average77 °F89%29.92 "Hg
* Reported Midnight between Sep 15 and Sep 16 — Midnight between Sep 30 and Oct 1, Enugu, Weather by CustomWeather, © 2014

Note: Actual official high and low records may vary slightly from our data, if they occured in-between our weather recording intervals... More about our weather records

Advertising

Enugu weather history for previous 24 hours

 ConditionsComfort  
Time TempWeatherWind HumidityBarometerVisibility
12:00 AM
Oct 1
75 °FPartly cloudy.3 mph94%29.95 "Hg5 mi
11:00 PM
Sep 30
75 °FPartly cloudy.6 mph94%29.98 "Hg5 mi
10:00 PM75 °FPartly cloudy.9 mph94%29.98 "Hg5 mi
9:00 PM75 °FPartly cloudy.3 mph94%29.95 "Hg5 mi
8:00 PM75 °FPartly cloudy.2 mph94%29.95 "Hg5 mi
7:00 PM75 °FThunderstorms. Passing clouds.5 mph94%29.92 "Hg5 mi
6:00 PM75 °FThunderstorms. Partly sunny.3 mph94%29.89 "Hg5 mi
5:00 PM77 °FThunderstorms. Partly sunny.1 mph89%29.89 "Hg4 mi
4:00 PM77 °FThunderstorms. Broken clouds.8 mph89%29.86 "Hg4 mi
3:00 PM75 °FThunderstorms. Mostly cloudy.9 mph94%29.89 "Hg3 mi
2:00 PM77 °FThunderstorms. Mostly cloudy.8 mph89%29.92 "Hg4 mi
1:00 PM75 °FThunderstorms. Mostly cloudy.6 mph94%29.95 "Hg4 mi
12:00 PM75 °FThunderstorms. Mostly cloudy.No wind94%29.98 "Hg4 mi
11:00 AM75 °FThunderstorms. Mostly cloudy.No wind94%30.01 "Hg3 mi
10:00 AM73 °FThunderstorms. More clouds than sun.3 mph94%29.98 "Hg5 mi
9:00 AM73 °FThunderstorms. Cloudy.8 mph94%29.98 "Hg1 mi
8:00 AM73 °FThunderstorms. Cloudy.3 mph94%29.95 "Hg1 mi
7:00 AM73 °FThunderstorms. Cloudy.3 mph94%29.92 "Hg3 mi
6:00 AM73 °FThunderstorms. Overcast.2 mph94%29.89 "Hg1 mi
5:00 AM73 °FThunderstorms. Mostly cloudy.No wind94%29.89 "Hg1 mi
4:00 AM73 °FThunderstorms. Mostly cloudy.10 mph94%29.89 "Hg1 mi
3:00 AM73 °FThunderstorms. Mostly cloudy.2 mph94%29.89 "Hg4 mi
2:00 AM73 °FThunderstorms. Mostly cloudy.3 mph94%29.89 "Hg1 mi
1:00 AM73 °FThunderstorms. Mostly cloudy.7 mph100%29.92 "Hg1 mi
Weather by CustomWeather, © 2014

See weather overviewHow to use our weather pages